Wetterdaten: Montag, 03.08.2015
Datum Zeit Temp. A. Feuchte A. Luftdruck Regen Wind Richtung Richtung Sonnenschein ET UV Solar Taupunkt Windchill Windben Empfang
03.08.2015 00:04 14,1 C 96 % 1020,9 hPa 0,0 l/m 0,0 km/h (0 Bft) NO 43 0 min 0,000 mm 0,0 UV-I 0 W/m 13,5 C 14,1 C 0,0 km/h (0 Bft) 0,00 %
03.08.2015 00:09 14,1 C 96 % 1020,8 hPa 0,0 l/m 0,0 km/h (0 Bft) NO 37 0 min 0,000 mm 0,0 UV-I 0 W/m 13,5 C 14,1 C 0,0 km/h (0 Bft) 0,00 %
03.08.2015 00:14 14,0 C 97 % 1020,8 hPa 0,0 l/m 0,0 km/h (0 Bft) NO 52 0 min 0,000 mm 0,0 UV-I 0 W/m 13,5 C 14,0 C 0,0 km/h (0 Bft) 0,00 %
03.08.2015 00:19 14,1 C 97 % 1020,8 hPa 0,0 l/m 0,0 km/h (0 Bft) O 85 0 min 0,000 mm 0,0 UV-I 0 W/m 13,6 C 14,1 C 0,0 km/h (0 Bft) 0,00 %
03.08.2015 00:24 14,3 C 98 % 1020,6 hPa 0,0 l/m 0,4 km/h (0 Bft) NO 41 0 min 0,000 mm 0,0 UV-I 0 W/m 14,0 C 14,3 C 4,0 km/h (1 Bft) 0,00 %
03.08.2015 00:29 14,4 C 98 % 1020,7 hPa 0,0 l/m 0,0 km/h (0 Bft) NO 54 0 min 0,000 mm 0,0 UV-I 0 W/m 14,1 C 14,4 C 0,0 km/h (0 Bft) 0,00 %
03.08.2015 00:34 14,4 C 98 % 1020,6 hPa 0,0 l/m 0,0 km/h (0 Bft) O-NO 57 0 min 0,000 mm 0,0 UV-I 0 W/m 14,1 C 14,4 C 0,0 km/h (0 Bft) 0,00 %
03.08.2015 00:39 14,4 C 98 % 1020,7 hPa 0,0 l/m 0,0 km/h (0 Bft) NO 43 0 min 0,000 mm 0,0 UV-I 0 W/m 14,1 C 14,4 C 0,0 km/h (0 Bft) 0,00 %
03.08.2015 00:44 14,3 C 98 % 1020,7 hPa 0,0 l/m 0,0 km/h (0 Bft) NO 36 0 min 0,000 mm 0,0 UV-I 0 W/m 14,0 C 14,3 C 0,0 km/h (0 Bft) 0,00 %
03.08.2015 00:49 14,2 C 98 % 1020,6 hPa 0,0 l/m 0,0 km/h (0 Bft) NO 40 0 min 0,000 mm 0,0 UV-I 0 W/m 13,9 C 14,2 C 0,0 km/h (0 Bft) 0,00 %
03.08.2015 00:54 14,0 C 99 % 1020,7 hPa 0,0 l/m 0,0 km/h (0 Bft) NO 43 0 min 0,000 mm 0,0 UV-I 0 W/m 13,8 C 14,0 C 0,0 km/h (0 Bft) 0,00 %
03.08.2015 00:59 13,9 C 99 % 1020,7 hPa 0,0 l/m 0,0 km/h (0 Bft) O-NO 57 0 min 0,000 mm 0,0 UV-I 0 W/m 13,7 C 13,9 C 0,0 km/h (0 Bft) 0,00 %
03.08.2015 01:04 13,8 C 99 % 1020,5 hPa 0,0 l/m 0,0 km/h (0 Bft) NO 43 0 min 0,000 mm 0,0 UV-I 0 W/m 13,6 C 13,8 C 0,0 km/h (0 Bft) 0,00 %
03.08.2015 01:09 13,6 C 99 % 1020,6 hPa 0,0 l/m 0,0 km/h (0 Bft) O-NO 62 0 min 0,000 mm 0,0 UV-I 0 W/m 13,4 C 13,6 C 0,0 km/h (0 Bft) 0,00 %
03.08.2015 01:14 13,5 C 99 % 1020,5 hPa 0,0 l/m 0,0 km/h (0 Bft) NO 53 0 min 0,000 mm 0,0 UV-I 0 W/m 13,3 C 13,5 C 0,0 km/h (0 Bft) 0,00 %
03.08.2015 01:19 13,4 C 99 % 1020,6 hPa 0,0 l/m 0,0 km/h (0 Bft) NO 53 0 min 0,000 mm 0,0 UV-I 0 W/m 13,2 C 13,4 C 0,0 km/h (0 Bft) 0,00 %
03.08.2015 01:24 13,2 C 99 % 1020,4 hPa 0,0 l/m 0,0 km/h (0 Bft) NO 50 0 min 0,000 mm 0,0 UV-I 0 W/m 13,0 C 13,2 C 0,0 km/h (0 Bft) 0,00 %
03.08.2015 01:29 13,1 C 99 % 1020,6 hPa 0,0 l/m 0,0 km/h (0 Bft) O-NO 71 0 min 0,000 mm 0,0 UV-I 0 W/m 12,9 C 13,1 C 0,0 km/h (0 Bft) 0,00 %
03.08.2015 01:34 13,2 C 99 % 1020,6 hPa 0,0 l/m 0,0 km/h (0 Bft) O-NO 70 0 min 0,000 mm 0,0 UV-I 0 W/m 13,0 C 13,2 C 0,0 km/h (0 Bft) 0,00 %
03.08.2015 01:39 13,4 C 99 % 1020,3 hPa 0,0 l/m 0,0 km/h (0 Bft) O 85 0 min 0,000 mm 0,0 UV-I 0 W/m 13,2 C 13,4 C 0,0 km/h (0 Bft) 0,00 %
03.08.2015 01:44 13,5 C 99 % 1020,4 hPa 0,0 l/m 0,0 km/h (0 Bft) O 93 0 min 0,000 mm 0,0 UV-I 0 W/m 13,3 C 13,5 C 0,0 km/h (0 Bft) 0,00 %
03.08.2015 01:49 13,6 C 99 % 1020,2 hPa 0,0 l/m 0,0 km/h (0 Bft) N-NO 27 0 min 0,000 mm 0,0 UV-I 0 W/m 13,4 C 13,6 C 0,0 km/h (0 Bft) 0,00 %
03.08.2015 01:54 13,5 C 99 % 1020,5 hPa 0,0 l/m 0,0 km/h (0 Bft) NO 43 0 min 0,000 mm 0,0 UV-I 0 W/m 13,3 C 13,5 C 0,0 km/h (0 Bft) 0,00 %
03.08.2015 01:59 13,4 C 99 % 1020,3 hPa 0,0 l/m 0,0 km/h (0 Bft) NO 44 0 min 0,000 mm 0,0 UV-I 0 W/m 13,2 C 13,4 C 0,0 km/h (0 Bft) 0,00 %
03.08.2015 02:04 13,1 C 99 % 1020,4 hPa 0,3 l/m 0,0 km/h (0 Bft) N-NO 33 0 min 0,000 mm 0,0 UV-I 0 W/m 12,9 C 13,1 C 0,0 km/h (0 Bft) 0,00 %
03.08.2015 02:09 12,9 C 99 % 1020,3 hPa 0,0 l/m 0,0 km/h (0 Bft) NO 35 0 min 0,000 mm 0,0 UV-I 0 W/m 12,7 C 12,9 C 0,0 km/h (0 Bft) 0,00 %
03.08.2015 02:14 12,8 C 99 % 1020,3 hPa 0,0 l/m 0,0 km/h (0 Bft) NO 36 0 min 0,000 mm 0,0 UV-I 0 W/m 12,6 C 12,8 C 0,0 km/h (0 Bft) 0,00 %
03.08.2015 02:19 12,7 C 99 % 1020,2 hPa 0,0 l/m 0,0 km/h (0 Bft) NO 36 0 min 0,000 mm 0,0 UV-I 0 W/m 12,5 C 12,7 C 0,0 km/h (0 Bft) 0,00 %
03.08.2015 02:24 12,7 C 99 % 1020,2 hPa 0,0 l/m 0,0 km/h (0 Bft) NO 46 0 min 0,000 mm 0,0 UV-I 0 W/m 12,5 C 12,7 C 0,0 km/h (0 Bft) 0,00 %
03.08.2015 02:29 12,6 C 99 % 1020,1 hPa 0,0 l/m 0,0 km/h (0 Bft) NO 42 0 min 0,000 mm 0,0 UV-I 0 W/m 12,4 C 12,6 C 0,0 km/h (0 Bft) 0,00 %
03.08.2015 02:34 12,5 C 99 % 1020,4 hPa 0,0 l/m 0,0 km/h (0 Bft) NO 46 0 min 0,000 mm 0,0 UV-I 0 W/m 12,3 C 12,5 C 0,0 km/h (0 Bft) 0,00 %
03.08.2015 02:39 12,4 C 99 % 1020,3 hPa 0,0 l/m 0,0 km/h (0 Bft) NO 45 0 min 0,000 mm 0,0 UV-I 0 W/m 12,2 C 12,4 C 0,0 km/h (0 Bft) 0,00 %
03.08.2015 02:44 12,3 C 99 % 1020,1 hPa 0,0 l/m 0,0 km/h (0 Bft) NO 39 0 min 0,000 mm 0,0 UV-I 0 W/m 12,1 C 12,3 C 0,0 km/h (0 Bft) 0,00 %
03.08.2015 02:49 12,2 C 99 % 1020,1 hPa 0,0 l/m 0,0 km/h (0 Bft) NO 44 0 min 0,000 mm 0,0 UV-I 0 W/m 12,0 C 12,2 C 0,0 km/h (0 Bft) 0,00 %
03.08.2015 02:54 12,2 C 99 % 1020,1 hPa 0,0 l/m 0,0 km/h (0 Bft) NO 50 0 min 0,000 mm 0,0 UV-I 0 W/m 12,0 C 12,2 C 0,0 km/h (0 Bft) 0,00 %
03.08.2015 02:59 12,1 C 99 % 1020,0 hPa 0,0 l/m 0,0 km/h (0 Bft) NO 39 0 min 0,000 mm 0,0 UV-I 0 W/m 11,9 C 12,1 C 0,0 km/h (0 Bft) 0,00 %
03.08.2015 03:04 12,1 C 99 % 1019,9 hPa 0,0 l/m 0,0 km/h (0 Bft) NO 39 0 min 0,000 mm 0,0 UV-I 0 W/m 11,9 C 12,1 C 0,0 km/h (0 Bft) 0,00 %
03.08.2015 03:09 12,0 C 97 % 1019,9 hPa 0,0 l/m 0,0 km/h (0 Bft) NO 38 0 min 0,000 mm 0,0 UV-I 0 W/m 11,5 C 12,0 C 0,0 km/h (0 Bft) 0,00 %
03.08.2015 03:14 12,0 C 97 % 1020,1 hPa 0,0 l/m 0,0 km/h (0 Bft) NO 42 0 min 0,000 mm 0,0 UV-I 0 W/m 11,5 C 12,0 C 0,0 km/h (0 Bft) 0,00 %
03.08.2015 03:19 11,9 C 97 % 1019,9 hPa 0,0 l/m 0,0 km/h (0 Bft) NO 40 0 min 0,000 mm 0,0 UV-I 0 W/m 11,4 C 11,9 C 0,0 km/h (0 Bft) 0,00 %
03.08.2015 03:24 11,9 C 97 % 1019,9 hPa 0,0 l/m 0,0 km/h (0 Bft) NO 46 0 min 0,000 mm 0,0 UV-I 0 W/m 11,4 C 11,9 C 0,0 km/h (0 Bft) 0,00 %
03.08.2015 03:29 11,9 C 97 % 1020,0 hPa 0,0 l/m 0,0 km/h (0 Bft) NO 47 0 min 0,000 mm 0,0 UV-I 0 W/m 11,4 C 11,9 C 0,0 km/h (0 Bft) 0,00 %
03.08.2015 03:34 11,8 C 97 % 1020,0 hPa 0,0 l/m 0,0 km/h (0 Bft) N-NO 22 0 min 0,000 mm 0,0 UV-I 0 W/m 11,3 C 11,8 C 0,0 km/h (0 Bft) 0,00 %
03.08.2015 03:39 11,8 C 97 % 1020,0 hPa 0,0 l/m 0,0 km/h (0 Bft) N 0 0 min 0,000 mm 0,0 UV-I 0 W/m 11,3 C 11,8 C 0,0 km/h (0 Bft) 0,00 %
03.08.2015 03:44 11,8 C 97 % 1019,9 hPa 0,0 l/m 0,0 km/h (0 Bft) N-NO 31 0 min 0,000 mm 0,0 UV-I 0 W/m 11,3 C 11,8 C 0,0 km/h (0 Bft) 0,00 %
03.08.2015 03:49 11,7 C 97 % 1020,0 hPa 0,0 l/m 0,0 km/h (0 Bft) NO 41 0 min 0,000 mm 0,0 UV-I 0 W/m 11,2 C 11,7 C 0,0 km/h (0 Bft) 0,00 %
03.08.2015 03:54 11,7 C 97 % 1019,9 hPa 0,0 l/m 0,0 km/h (0 Bft) NO 41 0 min 0,000 mm 0,0 UV-I 0 W/m 11,2 C 11,7 C 0,0 km/h (0 Bft) 0,00 %
03.08.2015 03:59 11,6 C 97 % 1019,8 hPa 0,0 l/m 0,0 km/h (0 Bft) NO 43 0 min 0,000 mm 0,0 UV-I 0 W/m 11,1 C 11,6 C 0,0 km/h (0 Bft) 0,00 %
03.08.2015 04:04 11,5 C 97 % 1019,9 hPa 0,0 l/m 0,0 km/h (0 Bft) NO 43 0 min 0,000 mm 0,0 UV-I 0 W/m 11,0 C 11,5 C 0,0 km/h (0 Bft) 0,00 %
03.08.2015 04:09 11,5 C 97 % 1019,8 hPa 0,0 l/m 0,0 km/h (0 Bft) NO 47 0 min 0,000 mm 0,0 UV-I 0 W/m 11,0 C 11,5 C 0,0 km/h (0 Bft) 0,00 %
03.08.2015 04:14 11,4 C 97 % 1020,1 hPa 0,0 l/m 0,0 km/h (0 Bft) NO 53 0 min 0,000 mm 0,0 UV-I 0 W/m 10,9 C 11,4 C 0,0 km/h (0 Bft) 0,00 %
03.08.2015 04:19 11,2 C 97 % 1020,0 hPa 0,0 l/m 0,0 km/h (0 Bft) NO 44 0 min 0,000 mm 0,0 UV-I 0 W/m 10,7 C 11,2 C 0,0 km/h (0 Bft) 0,00 %
03.08.2015 04:24 11,1 C 97 % 1019,9 hPa 0,0 l/m 0,0 km/h (0 Bft) NO 51 0 min 0,000 mm 0,0 UV-I 0 W/m 10,6 C 11,1 C 0,0 km/h (0 Bft) 0,00 %
03.08.2015 04:29 11,0 C 98 % 1019,9 hPa 0,0 l/m 0,0 km/h (0 Bft) NO 51 0 min 0,000 mm 0,0 UV-I 0 W/m 10,7 C 11,0 C 0,0 km/h (0 Bft) 0,00 %
03.08.2015 04:34 10,9 C 98 % 1019,9 hPa 0,0 l/m 0,0 km/h (0 Bft) NO 51 0 min 0,000 mm 0,0 UV-I 0 W/m 10,6 C 10,9 C 0,0 km/h (0 Bft) 0,00 %
03.08.2015 04:39 10,8 C 98 % 1019,7 hPa 0,0 l/m 0,0 km/h (0 Bft) NO 54 0 min 0,000 mm 0,0 UV-I 0 W/m 10,5 C 10,8 C 0,0 km/h (0 Bft) 0,00 %
03.08.2015 04:44 10,8 C 98 % 1019,8 hPa 0,0 l/m 0,0 km/h (0 Bft) O-NO 63 0 min 0,000 mm 0,0 UV-I 0 W/m 10,5 C 10,8 C 0,0 km/h (0 Bft) 0,00 %
03.08.2015 04:49 10,8 C 98 % 1019,8 hPa 0,0 l/m 0,0 km/h (0 Bft) NO 37 0 min 0,000 mm 0,0 UV-I 0 W/m 10,5 C 10,8 C 0,0 km/h (0 Bft) 0,00 %
03.08.2015 04:54 10,8 C 98 % 1019,8 hPa 0,0 l/m 0,0 km/h (0 Bft) NO 41 0 min 0,000 mm 0,0 UV-I 0 W/m 10,5 C 10,8 C 0,0 km/h (0 Bft) 0,00 %
03.08.2015 04:59 10,9 C 97 % 1019,8 hPa 0,0 l/m 0,0 km/h (0 Bft) NO 41 0 min 0,000 mm 0,0 UV-I 0 W/m 10,4 C 10,9 C 0,0 km/h (0 Bft) 0,00 %
03.08.2015 05:04 10,9 C 97 % 1019,7 hPa 0,0 l/m 0,0 km/h (0 Bft) NO 37 0 min 0,000 mm 0,0 UV-I 0 W/m 10,4 C 10,9 C 0,0 km/h (0 Bft) 0,00 %
03.08.2015 05:09 10,9 C 97 % 1019,7 hPa 0,0 l/m 0,0 km/h (0 Bft) NO 39 0 min 0,000 mm 0,0 UV-I 0 W/m 10,4 C 10,9 C 0,0 km/h (0 Bft) 0,00 %
03.08.2015 05:14 10,9 C 97 % 1019,7 hPa 0,0 l/m 0,0 km/h (0 Bft) NO 49 0 min 0,000 mm 0,0 UV-I 0 W/m 10,4 C 10,9 C 0,0 km/h (0 Bft) 0,00 %
03.08.2015 05:19 11,0 C 97 % 1019,7 hPa 0,0 l/m 0,0 km/h (0 Bft) NO 42 0 min 0,000 mm 0,0 UV-I 0 W/m 10,5 C 11,0 C 0,0 km/h (0 Bft) 0,00 %
03.08.2015 05:24 11,2 C 97 % 1019,8 hPa 0,0 l/m 0,0 km/h (0 Bft) NO 49 0 min 0,000 mm 0,0 UV-I 0 W/m 10,7 C 11,2 C 0,0 km/h (0 Bft) 0,00 %
03.08.2015 05:29 11,3 C 97 % 1019,8 hPa 0,0 l/m 0,0 km/h (0 Bft) NO 44 0 min 0,000 mm 0,0 UV-I 0 W/m 10,8 C 11,3 C 0,0 km/h (0 Bft) 0,00 %
03.08.2015 05:34 11,4 C 97 % 1019,7 hPa 0,0 l/m 0,0 km/h (0 Bft) NO 49 0 min 0,000 mm 0,0 UV-I 0 W/m 10,9 C 11,4 C 0,0 km/h (0 Bft) 0,00 %
03.08.2015 05:39 11,5 C 97 % 1019,8 hPa 0,0 l/m 0,0 km/h (0 Bft) O-NO 57 0 min 0,000 mm 0,0 UV-I 0 W/m 11,0 C 11,5 C 0,0 km/h (0 Bft) 0,00 %
03.08.2015 05:44 11,6 C 97 % 1019,9 hPa 0,0 l/m 0,0 km/h (0 Bft) NO 38 0 min 0,000 mm 0,0 UV-I 0 W/m 11,1 C 11,6 C 0,0 km/h (0 Bft) 0,00 %
03.08.2015 05:49 11,7 C 97 % 1019,8 hPa 0,0 l/m 0,0 km/h (0 Bft) NO 41 0 min 0,000 mm 0,0 UV-I 0 W/m 11,2 C 11,7 C 0,0 km/h (0 Bft) 0,00 %
03.08.2015 05:54 11,8 C 99 % 1019,7 hPa 0,0 l/m 0,0 km/h (0 Bft) NO 36 0 min 0,000 mm 0,0 UV-I 2 W/m 11,6 C 11,8 C 0,0 km/h (0 Bft) 0,00 %
03.08.2015 05:59 11,9 C 99 % 1019,8 hPa 0,0 l/m 0,0 km/h (0 Bft) NO 44 0 min 0,000 mm 0,0 UV-I 5 W/m 11,7 C 11,9 C 0,0 km/h (0 Bft) 0,00 %
03.08.2015 06:04 12,0 C 99 % 1019,9 hPa 0,0 l/m 0,0 km/h (0 Bft) NO 47 0 min 0,000 mm 0,0 UV-I 7 W/m 11,8 C 12,0 C 0,0 km/h (0 Bft) 0,00 %
03.08.2015 06:09 12,1 C 99 % 1020,0 hPa 0,0 l/m 0,0 km/h (0 Bft) O-NO 64 0 min 0,000 mm 0,0 UV-I 10 W/m 11,9 C 12,1 C 0,0 km/h (0 Bft) 0,00 %
03.08.2015 06:14 12,3 C 99 % 1020,1 hPa 0,0 l/m 0,0 km/h (0 Bft) O-NO 60 0 min 0,000 mm 0,0 UV-I 21 W/m 12,1 C 12,3 C 0,0 km/h (0 Bft) 0,00 %
03.08.2015 06:19 12,5 C 99 % 1020,1 hPa 0,0 l/m 0,0 km/h (0 Bft) NO 39 0 min 0,000 mm 0,0 UV-I 24 W/m 12,3 C 12,5 C 0,0 km/h (0 Bft) 0,00 %
03.08.2015 06:24 12,6 C 99 % 1020,1 hPa 0,0 l/m 0,0 km/h (0 Bft) O-NO 57 0 min 0,000 mm 0,0 UV-I 25 W/m 12,4 C 12,6 C 0,0 km/h (0 Bft) 0,00 %
03.08.2015 06:29 12,7 C 99 % 1020,1 hPa 0,0 l/m 0,0 km/h (0 Bft) O-NO 65 0 min 0,000 mm 0,0 UV-I 29 W/m 12,5 C 12,7 C 0,0 km/h (0 Bft) 0,00 %
03.08.2015 06:34 12,7 C 99 % 1020,1 hPa 0,0 l/m 0,0 km/h (0 Bft) O-NO 63 0 min 0,000 mm 0,0 UV-I 32 W/m 12,5 C 12,7 C 0,0 km/h (0 Bft) 0,00 %
03.08.2015 06:39 12,8 C 99 % 1020,3 hPa 0,0 l/m 0,0 km/h (0 Bft) O 87 0 min 0,000 mm 0,0 UV-I 39 W/m 12,6 C 12,8 C 0,0 km/h (0 Bft) 0,00 %
03.08.2015 06:44 12,8 C 99 % 1020,1 hPa 0,0 l/m 0,0 km/h (0 Bft) O-NO 77 0 min 0,000 mm 0,0 UV-I 48 W/m 12,6 C 12,8 C 0,0 km/h (0 Bft) 0,00 %
03.08.2015 06:49 12,8 C 99 % 1020,2 hPa 0,0 l/m 0,0 km/h (0 Bft) O-NO 76 0 min 0,000 mm 0,0 UV-I 48 W/m 12,6 C 12,8 C 0,0 km/h (0 Bft) 0,00 %
03.08.2015 06:54 12,9 C 99 % 1020,2 hPa 0,0 l/m 0,0 km/h (0 Bft) O 90 0 min 0,000 mm 0,0 UV-I 55 W/m 12,7 C 12,9 C 0,0 km/h (0 Bft) 0,00 %
03.08.2015 06:59 12,9 C 99 % 1020,3 hPa 0,0 l/m 0,0 km/h (0 Bft) NO 44 0 min 0,000 mm 0,0 UV-I 61 W/m 12,7 C 12,9 C 0,0 km/h (0 Bft) 0,00 %
03.08.2015 07:04 13,0 C 99 % 1020,4 hPa 0,0 l/m 0,0 km/h (0 Bft) O-NO 78 0 min 0,000 mm 0,0 UV-I 67 W/m 12,8 C 13,0 C 0,0 km/h (0 Bft) 0,00 %
03.08.2015 07:09 13,0 C 99 % 1020,5 hPa 0,0 l/m 0,0 km/h (0 Bft) O-NO 67 0 min 0,000 mm 0,0 UV-I 63 W/m 12,8 C 13,0 C 0,0 km/h (0 Bft) 0,00 %
03.08.2015 07:14 13,1 C 99 % 1020,4 hPa 0,0 l/m 0,7 km/h (0 Bft) O 98 0 min 0,000 mm 1,0 UV-I 90 W/m 12,9 C 13,1 C 4,0 km/h (1 Bft) 0,00 %
03.08.2015 07:19 13,1 C 99 % 1020,2 hPa 0,0 l/m 0,0 km/h (0 Bft) O 83 0 min 0,000 mm 1,0 UV-I 94 W/m 12,9 C 13,1 C 0,0 km/h (0 Bft) 0,00 %
03.08.2015 07:24 13,3 C 99 % 1020,5 hPa 0,0 l/m 0,0 km/h (0 Bft) NO 50 0 min 0,000 mm 1,0 UV-I 116 W/m 13,1 C 13,3 C 0,0 km/h (0 Bft) 0,00 %
03.08.2015 07:29 13,4 C 99 % 1020,4 hPa 0,0 l/m 0,0 km/h (0 Bft) NO 38 0 min 0,000 mm 1,0 UV-I 107 W/m 13,2 C 13,4 C 0,0 km/h (0 Bft) 0,00 %
03.08.2015 07:34 13,6 C 99 % 1020,5 hPa 0,0 l/m 0,0 km/h (0 Bft) NO 44 0 min 0,000 mm 1,0 UV-I 117 W/m 13,4 C 13,6 C 0,0 km/h (0 Bft) 0,00 %
03.08.2015 07:39 13,8 C 99 % 1020,4 hPa 0,0 l/m 0,0 km/h (0 Bft) O 82 0 min 0,000 mm 1,0 UV-I 132 W/m 13,6 C 13,8 C 0,0 km/h (0 Bft) 0,00 %
03.08.2015 07:44 13,8 C 99 % 1020,5 hPa 0,0 l/m 0,0 km/h (0 Bft) O-NO 63 0 min 0,000 mm 1,0 UV-I 132 W/m 13,6 C 13,8 C 0,0 km/h (0 Bft) 0,00 %
03.08.2015 07:49 13,8 C 99 % 1020,3 hPa 0,0 l/m 0,0 km/h (0 Bft) O 84 0 min 0,000 mm 1,0 UV-I 125 W/m 13,6 C 13,8 C 0,0 km/h (0 Bft) 0,00 %
03.08.2015 07:54 13,8 C 99 % 1020,4 hPa 0,0 l/m 0,0 km/h (0 Bft) O-NO 57 0 min 0,000 mm 1,0 UV-I 110 W/m 13,6 C 13,8 C 0,0 km/h (0 Bft) 0,00 %
03.08.2015 07:59 13,9 C 99 % 1020,5 hPa 0,0 l/m 0,0 km/h (0 Bft) NO 54 0 min 0,000 mm 1,0 UV-I 112 W/m 13,7 C 13,9 C 0,0 km/h (0 Bft) 0,00 %
03.08.2015 08:04 13,9 C 99 % 1020,5 hPa 0,0 l/m 0,0 km/h (0 Bft) O-NO 67 0 min 0,000 mm 1,0 UV-I 113 W/m 13,7 C 13,9 C 0,0 km/h (0 Bft) 0,00 %
03.08.2015 08:09 13,9 C 99 % 1020,8 hPa 0,0 l/m 0,0 km/h (0 Bft) O 98 0 min 0,000 mm 1,0 UV-I 127 W/m 13,7 C 13,9 C 0,0 km/h (0 Bft) 0,00 %
03.08.2015 08:14 14,0 C 99 % 1020,6 hPa 0,0 l/m 0,0 km/h (0 Bft) NO 53 0 min 0,000 mm 1,0 UV-I 155 W/m 13,8 C 14,0 C 0,0 km/h (0 Bft) 0,00 %
03.08.2015 08:19 14,0 C 99 % 1020,5 hPa 0,0 l/m 0,0 km/h (0 Bft) NO 46 0 min 0,000 mm 1,0 UV-I 175 W/m 13,8 C 14,0 C 0,0 km/h (0 Bft) 0,00 %
03.08.2015 08:24 14,1 C 99 % 1020,6 hPa 0,0 l/m 0,0 km/h (0 Bft) NO 46 0 min 0,000 mm 1,0 UV-I 210 W/m 13,9 C 14,1 C 0,0 km/h (0 Bft) 0,00 %
03.08.2015 08:29 14,3 C 99 % 1020,5 hPa 0,0 l/m 0,0 km/h (0 Bft) NO 42 0 min 0,000 mm 1,0 UV-I 193 W/m 14,1 C 14,3 C 0,0 km/h (0 Bft) 0,00 %
03.08.2015 08:34 14,5 C 99 % 1020,5 hPa 0,0 l/m 0,0 km/h (0 Bft) NO 42 0 min 0,000 mm 1,0 UV-I 222 W/m 14,3 C 14,5 C 0,0 km/h (0 Bft) 0,00 %
03.08.2015 08:39 14,6 C 99 % 1020,5 hPa 0,0 l/m 0,0 km/h (0 Bft) NO 51 0 min 0,000 mm 1,0 UV-I 199 W/m 14,4 C 14,6 C 0,0 km/h (0 Bft) 0,00 %
03.08.2015 08:44 14,9 C 98 % 1020,4 hPa 0,0 l/m 0,0 km/h (0 Bft) N 353 0 min 0,000 mm 1,0 UV-I 217 W/m 14,6 C 14,9 C 0,0 km/h (0 Bft) 0,00 %
03.08.2015 08:49 15,0 C 98 % 1020,5 hPa 0,0 l/m 0,0 km/h (0 Bft) O-NO 78 0 min 0,000 mm 1,0 UV-I 236 W/m 14,7 C 15,0 C 0,0 km/h (0 Bft) 0,00 %
03.08.2015 08:54 15,1 C 98 % 1019,8 hPa 0,0 l/m 0,0 km/h (0 Bft) O 79 0 min 0,000 mm 1,0 UV-I 187 W/m 14,8 C 15,1 C 0,0 km/h (0 Bft) 0,00 %
03.08.2015 08:59 15,2 C 98 % 1019,8 hPa 0,0 l/m 0,0 km/h (0 Bft) NO 47 0 min 0,000 mm 1,0 UV-I 183 W/m 14,9 C 15,2 C 0,0 km/h (0 Bft) 0,00 %
03.08.2015 09:04 15,4 C 98 % 1019,6 hPa 0,0 l/m 0,0 km/h (0 Bft) NO 55 5 min 0,000 mm 1,0 UV-I 296 W/m 15,1 C 15,4 C 0,0 km/h (0 Bft) 0,00 %
03.08.2015 09:09 15,5 C 97 % 1019,6 hPa 0,0 l/m 0,0 km/h (0 Bft) NO 51 5 min 0,000 mm 2,0 UV-I 338 W/m 15,0 C 15,5 C 0,0 km/h (0 Bft) 0,00 %
03.08.2015 09:14 15,7 C 96 % 1019,8 hPa 0,0 l/m 0,0 km/h (0 Bft) O 89 0 min 0,000 mm 1,0 UV-I 253 W/m 15,1 C 15,7 C 0,0 km/h (0 Bft) 0,00 %
03.08.2015 09:19 15,7 C 95 % 1019,9 hPa 0,0 l/m 0,0 km/h (0 Bft) NO 35 0 min 0,000 mm 1,0 UV-I 237 W/m 14,9 C 15,7 C 0,0 km/h (0 Bft) 0,00 %
03.08.2015 09:24 15,7 C 93 % 1019,7 hPa 0,0 l/m 0,0 km/h (0 Bft) O 93 0 min 0,000 mm 1,0 UV-I 293 W/m 14,6 C 15,7 C 0,0 km/h (0 Bft) 0,00 %
03.08.2015 09:29 15,7 C 91 % 1019,6 hPa 0,0 l/m 0,0 km/h (0 Bft) O 80 0 min 0,000 mm 1,0 UV-I 309 W/m 14,2 C 15,7 C 0,0 km/h (0 Bft) 0,00 %
03.08.2015 09:34 15,9 C 89 % 1019,7 hPa 0,0 l/m 0,0 km/h (0 Bft) NO 51 5 min 0,000 mm 2,0 UV-I 325 W/m 14,1 C 15,9 C 0,0 km/h (0 Bft) 0,00 %
03.08.2015 09:39 16,2 C 87 % 1019,6 hPa 0,0 l/m 0,0 km/h (0 Bft) NO 46 0 min 0,000 mm 1,0 UV-I 240 W/m 14,0 C 16,2 C 0,0 km/h (0 Bft) 0,00 %
03.08.2015 09:44 16,4 C 86 % 1019,6 hPa 0,0 l/m 0,0 km/h (0 Bft) O 83 5 min 0,000 mm 2,0 UV-I 385 W/m 14,1 C 16,4 C 0,0 km/h (0 Bft) 0,00 %
03.08.2015 09:49 16,7 C 84 % 1019,5 hPa 0,0 l/m 0,0 km/h (0 Bft) NO 41 5 min 0,000 mm 2,0 UV-I 440 W/m 14,0 C 16,7 C 0,0 km/h (0 Bft) 0,00 %
03.08.2015 09:54 17,1 C 83 % 1019,5 hPa 0,0 l/m 0,0 km/h (0 Bft) N-NO 24 5 min 0,000 mm 2,0 UV-I 383 W/m 14,2 C 17,1 C 0,0 km/h (0 Bft) 0,00 %
03.08.2015 09:59 17,5 C 81 % 1019,6 hPa 0,0 l/m 0,0 km/h (0 Bft) O 100 5 min 0,000 mm 2,0 UV-I 380 W/m 14,2 C 17,5 C 0,0 km/h (0 Bft) 0,00 %
03.08.2015 10:04 17,9 C 78 % 1019,8 hPa 0,0 l/m 0,0 km/h (0 Bft) NO 36 0 min 0,000 mm 2,0 UV-I 267 W/m 14,0 C 17,9 C 0,0 km/h (0 Bft) 0,00 %
03.08.2015 10:09 18,0 C 78 % 1019,6 hPa 0,0 l/m 0,0 km/h (0 Bft) NO 46 0 min 0,000 mm 2,0 UV-I 312 W/m 14,1 C 18,0 C 0,0 km/h (0 Bft) 0,00 %
03.08.2015 10:14 18,2 C 77 % 1019,7 hPa 0,0 l/m 0,0 km/h (0 Bft) NO 39 0 min 0,000 mm 2,0 UV-I 346 W/m 14,1 C 18,2 C 0,0 km/h (0 Bft) 0,00 %
03.08.2015 10:19 18,4 C 76 % 1019,5 hPa 0,0 l/m 0,0 km/h (0 Bft) N 350 5 min 0,000 mm 2,0 UV-I 441 W/m 14,1 C 18,4 C 0,0 km/h (0 Bft) 0,00 %
03.08.2015 10:24 18,7 C 76 % 1019,6 hPa 0,0 l/m 0,0 km/h (0 Bft) N 355 5 min 0,000 mm 3,0 UV-I 767 W/m 14,4 C 18,7 C 0,0 km/h (0 Bft) 0,00 %
03.08.2015 10:29 19,1 C 75 % 1019,4 hPa 0,0 l/m 0,0 km/h (0 Bft) NO 35 5 min 0,000 mm 3,0 UV-I 712 W/m 14,6 C 19,1 C 0,0 km/h (0 Bft) 0,00 %
03.08.2015 10:34 19,7 C 71 % 1019,5 hPa 0,0 l/m 0,0 km/h (0 Bft) NO 38 5 min 0,000 mm 3,0 UV-I 725 W/m 14,3 C 19,7 C 0,0 km/h (0 Bft) 0,00 %
03.08.2015 10:39 20,5 C 66 % 1019,5 hPa 0,0 l/m 0,0 km/h (0 Bft) NO 45 0 min 0,000 mm 2,0 UV-I 300 W/m 13,9 C 20,5 C 0,0 km/h (0 Bft) 0,00 %
03.08.2015 10:44 21,0 C 67 % 1019,4 hPa 0,0 l/m 0,0 km/h (0 Bft) NO 50 5 min 0,000 mm 3,0 UV-I 669 W/m 14,6 C 21,0 C 0,0 km/h (0 Bft) 0,00 %
03.08.2015 10:49 21,3 C 65 % 1019,5 hPa 0,0 l/m 0,0 km/h (0 Bft) N 349 5 min 0,000 mm 3,0 UV-I 683 W/m 14,4 C 21,3 C 0,0 km/h (0 Bft) 0,00 %
03.08.2015 10:54 21,8 C 64 % 1019,5 hPa 0,0 l/m 0,0 km/h (0 Bft) N-NO 26 5 min 0,000 mm 4,0 UV-I 721 W/m 14,7 C 21,8 C 0,0 km/h (0 Bft) 0,00 %
03.08.2015 10:59 22,1 C 63 % 1019,4 hPa 0,0 l/m 0,0 km/h (0 Bft) O-SO 103 5 min 0,000 mm 3,0 UV-I 648 W/m 14,7 C 22,1 C 0,0 km/h (0 Bft) 0,00 %
03.08.2015 11:04 22,1 C 63 % 1019,3 hPa 0,0 l/m 0,0 km/h (0 Bft) N-NW 335 5 min 0,000 mm 4,0 UV-I 682 W/m 14,7 C 22,1 C 0,0 km/h (0 Bft) 0,00 %
03.08.2015 11:10 22,1 C 62 % 1019,5 hPa 0,0 l/m 0,0 km/h (0 Bft) NO 51 6 min 0,000 mm 4,0 UV-I 689 W/m 14,5 C 22,1 C 0,0 km/h (0 Bft) 0,00 %
03.08.2015 11:15 22,3 C 63 % 1019,2 hPa 0,0 l/m 0,0 km/h (0 Bft) N-NO 20 5 min 0,000 mm 4,0 UV-I 702 W/m 14,9 C 22,3 C 0,0 km/h (0 Bft) 0,00 %
03.08.2015 11:20 22,3 C 64 % 1019,3 hPa 0,0 l/m 0,4 km/h (0 Bft) NO 48 5 min 0,000 mm 4,0 UV-I 714 W/m 15,2 C 22,3 C 4,0 km/h (1 Bft) 0,00 %
03.08.2015 11:25 22,2 C 65 % 1019,4 hPa 0,0 l/m 0,0 km/h (0 Bft) N 8 5 min 0,000 mm 4,0 UV-I 732 W/m 15,3 C 22,2 C 0,0 km/h (0 Bft) 0,00 %
03.08.2015 11:30 22,4 C 63 % 1020,3 hPa 0,0 l/m 0,0 km/h (0 Bft) NO 34 5 min 0,000 mm 4,0 UV-I 731 W/m 15,0 C 22,4 C 0,0 km/h (0 Bft) 0,00 %
03.08.2015 11:35 22,7 C 63 % 1020,0 hPa 0,0 l/m 0,0 km/h (0 Bft) O-NO 59 5 min 0,000 mm 4,0 UV-I 737 W/m 15,3 C 22,7 C 0,0 km/h (0 Bft) 0,00 %
03.08.2015 11:40 22,9 C 61 % 1020,1 hPa 0,0 l/m 0,0 km/h (0 Bft) N-NO 28 5 min 0,000 mm 4,0 UV-I 747 W/m 15,0 C 22,9 C 0,0 km/h (0 Bft) 0,00 %
03.08.2015 11:45 23,1 C 61 % 1020,3 hPa 0,0 l/m 1,4 km/h (1 Bft) NO 44 5 min 0,000 mm 4,0 UV-I 747 W/m 15,2 C 23,1 C 4,0 km/h (1 Bft) 0,00 %
03.08.2015 11:50 23,1 C 62 % 1020,0 hPa 0,0 l/m 0,0 km/h (0 Bft) NO 50 5 min 0,000 mm 4,0 UV-I 749 W/m 15,4 C 23,1 C 0,0 km/h (0 Bft) 0,00 %
03.08.2015 11:55 23,3 C 61 % 1020,1 hPa 0,0 l/m 0,0 km/h (0 Bft) NO 42 5 min 0,000 mm 4,0 UV-I 765 W/m 15,3 C 23,3 C 0,0 km/h (0 Bft) 0,00 %
03.08.2015 12:00 23,5 C 59 % 1020,0 hPa 0,0 l/m 0,0 km/h (0 Bft) NO 37 5 min 0,000 mm 5,0 UV-I 772 W/m 15,0 C 23,5 C 0,0 km/h (0 Bft) 0,00 %
03.08.2015 12:05 23,6 C 61 % 1020,1 hPa 0,0 l/m 0,4 km/h (0 Bft) O-NO 73 5 min 0,000 mm 5,0 UV-I 779 W/m 15,6 C 23,6 C 4,0 km/h (1 Bft) 0,00 %
03.08.2015 12:10 23,5 C 60 % 1020,1 hPa 0,0 l/m 0,0 km/h (0 Bft) NO 46 5 min 0,000 mm 5,0 UV-I 786 W/m 15,3 C 23,5 C 0,0 km/h (0 Bft) 0,00 %
03.08.2015 12:15 23,4 C 59 % 1020,0 hPa 0,0 l/m 0,0 km/h (0 Bft) NO 35 5 min 0,000 mm 5,0 UV-I 787 W/m 14,9 C 23,4 C 0,0 km/h (0 Bft) 0,00 %
03.08.2015 12:20 23,6 C 55 % 1020,1 hPa 0,0 l/m 4,3 km/h (1 Bft) O 91 5 min 0,000 mm 5,0 UV-I 793 W/m 14,0 C 23,6 C 7,9 km/h (2 Bft) 0,00 %
03.08.2015 12:25 23,7 C 56 % 1020,1 hPa 0,0 l/m 1,4 km/h (1 Bft) O 92 5 min 0,000 mm 5,0 UV-I 793 W/m 14,4 C 23,7 C 4,0 km/h (1 Bft) 0,00 %
03.08.2015 12:30 23,7 C 56 % 1019,9 hPa 0,0 l/m 0,0 km/h (0 Bft) N-NO 23 5 min 0,000 mm 5,0 UV-I 803 W/m 14,4 C 23,7 C 0,0 km/h (0 Bft) 0,00 %
03.08.2015 12:35 23,7 C 56 % 1019,9 hPa 0,0 l/m 4,0 km/h (1 Bft) O-NO 61 5 min 0,000 mm 5,0 UV-I 806 W/m 14,4 C 23,7 C 7,9 km/h (2 Bft) 0,00 %
03.08.2015 12:40 23,6 C 57 % 1019,9 hPa 0,0 l/m 0,7 km/h (0 Bft) N-NO 20 5 min 0,000 mm 5,0 UV-I 811 W/m 14,6 C 23,6 C 4,0 km/h (1 Bft) 0,00 %
03.08.2015 12:45 23,6 C 55 % 1019,8 hPa 0,0 l/m 0,0 km/h (0 Bft) O-NO 67 5 min 0,000 mm 5,0 UV-I 819 W/m 14,0 C 23,6 C 0,0 km/h (0 Bft) 0,00 %
03.08.2015 12:50 23,8 C 54 % 1019,7 hPa 0,0 l/m 0,0 km/h (0 Bft) NO 46 5 min 0,000 mm 5,0 UV-I 833 W/m 13,9 C 23,8 C 0,0 km/h (0 Bft) 0,00 %
03.08.2015 12:55 24,0 C 52 % 1019,8 hPa 0,0 l/m 2,9 km/h (1 Bft) SO 132 5 min 0,000 mm 5,0 UV-I 829 W/m 13,5 C 24,0 C 4,0 km/h (1 Bft) 0,00 %
03.08.2015 13:00 24,0 C 53 % 1019,7 hPa 0,0 l/m 0,0 km/h (0 Bft) NO 36 5 min 0,000 mm 5,0 UV-I 828 W/m 13,8 C 24,0 C 0,0 km/h (0 Bft) 0,00 %
03.08.2015 13:05 23,9 C 53 % 1019,7 hPa 0,0 l/m 0,0 km/h (0 Bft) N 3 5 min 0,000 mm 5,0 UV-I 838 W/m 13,7 C 23,9 C 0,0 km/h (0 Bft) 0,00 %
03.08.2015 13:10 24,0 C 52 % 1019,7 hPa 0,0 l/m 0,4 km/h (0 Bft) O-NO 66 5 min 0,000 mm 5,0 UV-I 848 W/m 13,5 C 24,0 C 4,0 km/h (1 Bft) 0,00 %
03.08.2015 13:15 24,1 C 51 % 1019,5 hPa 0,0 l/m 0,0 km/h (0 Bft) O 79 5 min 0,000 mm 5,0 UV-I 848 W/m 13,3 C 24,1 C 0,0 km/h (0 Bft) 0,00 %
03.08.2015 13:20 24,3 C 50 % 1019,6 hPa 0,0 l/m 0,0 km/h (0 Bft) O 94 5 min 0,000 mm 5,0 UV-I 858 W/m 13,2 C 24,3 C 0,0 km/h (0 Bft) 0,00 %
03.08.2015 13:25 24,4 C 49 % 1019,6 hPa 0,0 l/m 0,0 km/h (0 Bft) O-NO 64 5 min 0,000 mm 5,0 UV-I 864 W/m 13,0 C 24,4 C 0,0 km/h (0 Bft) 0,00 %
03.08.2015 13:30 24,5 C 48 % 1019,5 hPa 0,0 l/m 4,3 km/h (1 Bft) SO 132 5 min 0,000 mm 5,0 UV-I 869 W/m 12,8 C 24,5 C 7,9 km/h (2 Bft) 0,00 %
03.08.2015 13:35 24,6 C 48 % 1019,4 hPa 0,0 l/m 1,8 km/h (1 Bft) O-NO 63 5 min 0,000 mm 5,0 UV-I 859 W/m 12,8 C 24,6 C 4,0 km/h (1 Bft) 0,00 %
03.08.2015 13:40 24,6 C 49 % 1019,4 hPa 0,0 l/m 0,0 km/h (0 Bft) O-NO 66 5 min 0,000 mm 5,0 UV-I 870 W/m 13,2 C 24,6 C 0,0 km/h (0 Bft) 0,00 %
03.08.2015 13:45 24,6 C 48 % 1019,6 hPa 0,0 l/m 0,0 km/h (0 Bft) NO 38 5 min 0,000 mm 5,0 UV-I 881 W/m 12,8 C 24,6 C 0,0 km/h (0 Bft) 0,00 %
03.08.2015 13:50 24,9 C 47 % 1019,4 hPa 0,0 l/m 0,4 km/h (0 Bft) NO 38 5 min 0,000 mm 5,0 UV-I 877 W/m 12,8 C 24,9 C 4,0 km/h (1 Bft) 0,00 %
03.08.2015 13:55 24,9 C 45 % 1019,4 hPa 0,0 l/m 0,0 km/h (0 Bft) N-NW 346 5 min 0,000 mm 5,0 UV-I 879 W/m 12,1 C 24,9 C 0,0 km/h (0 Bft) 0,00 %
03.08.2015 14:00 25,2 C 47 % 1019,5 hPa 0,0 l/m 0,0 km/h (0 Bft) NO 55 5 min 0,000 mm 4,0 UV-I 890 W/m 13,1 C 25,2 C 0,0 km/h (0 Bft) 0,00 %
03.08.2015 14:05 25,3 C 44 % 1019,4 hPa 0,0 l/m 0,4 km/h (0 Bft) NO 38 5 min 0,000 mm 4,0 UV-I 898 W/m 12,2 C 25,3 C 4,0 km/h (1 Bft) 0,00 %
03.08.2015 14:10 25,5 C 46 % 1019,4 hPa 0,0 l/m 0,0 km/h (0 Bft) NO 37 5 min 0,000 mm 4,0 UV-I 901 W/m 13,0 C 25,5 C 0,0 km/h (0 Bft) 0,00 %
03.08.2015 14:15 25,6 C 44 % 1019,5 hPa 0,0 l/m 1,4 km/h (1 Bft) N 350 5 min 0,000 mm 4,0 UV-I 898 W/m 12,4 C 25,6 C 4,0 km/h (1 Bft) 0,00 %
03.08.2015 14:20 25,7 C 42 % 1019,3 hPa 0,0 l/m 0,0 km/h (0 Bft) N-NO 19 5 min 0,000 mm 4,0 UV-I 902 W/m 11,8 C 25,7 C 0,0 km/h (0 Bft) 0,00 %
03.08.2015 14:25 25,7 C 46 % 1019,4 hPa 0,0 l/m 2,9 km/h (1 Bft) NW 322 5 min 0,000 mm 4,0 UV-I 912 W/m 13,2 C 25,7 C 4,0 km/h (1 Bft) 0,00 %
03.08.2015 14:30 25,9 C 41 % 1019,4 hPa 0,0 l/m 0,0 km/h (0 Bft) N-NO 24 5 min 0,000 mm 4,0 UV-I 904 W/m 11,6 C 25,9 C 0,0 km/h (0 Bft) 0,00 %
03.08.2015 14:35 26,1 C 41 % 1019,4 hPa 0,0 l/m 0,0 km/h (0 Bft) O 91 5 min 0,000 mm 4,0 UV-I 911 W/m 11,8 C 26,1 C 0,0 km/h (0 Bft) 0,00 %
03.08.2015 14:40 26,3 C 40 % 1019,4 hPa 0,0 l/m 1,8 km/h (1 Bft) W-SW 255 5 min 0,000 mm 4,0 UV-I 914 W/m 11,6 C 26,3 C 4,0 km/h (1 Bft) 0,00 %
03.08.2015 14:45 26,5 C 39 % 1019,0 hPa 0,0 l/m 0,4 km/h (0 Bft) N-NW 338 5 min 0,000 mm 4,0 UV-I 919 W/m 11,4 C 26,5 C 4,0 km/h (1 Bft) 0,00 %
03.08.2015 14:50 26,8 C 41 % 1019,3 hPa 0,0 l/m 0,4 km/h (0 Bft) NO 36 5 min 0,000 mm 4,0 UV-I 917 W/m 12,4 C 26,8 C 4,0 km/h (1 Bft) 0,00 %
03.08.2015 14:55 27,0 C 41 % 1019,3 hPa 0,0 l/m 0,0 km/h (0 Bft) NO 48 5 min 0,000 mm 4,0 UV-I 921 W/m 12,6 C 27,0 C 0,0 km/h (0 Bft) 0,00 %
03.08.2015 15:00 27,2 C 39 % 1019,1 hPa 0,0 l/m 0,0 km/h (0 Bft) N-NW 336 5 min 0,000 mm 4,0 UV-I 933 W/m 12,0 C 27,2 C 0,0 km/h (0 Bft) 0,00 %
03.08.2015 15:05 27,5 C 40 % 1018,9 hPa 0,0 l/m 0,0 km/h (0 Bft) O-NO 62 5 min 0,000 mm 4,0 UV-I 935 W/m 12,7 C 27,5 C 0,0 km/h (0 Bft) 0,00 %
03.08.2015 15:10 27,8 C 42 % 1019,1 hPa 0,0 l/m 0,0 km/h (0 Bft) N-NO 22 5 min 0,000 mm 4,0 UV-I 937 W/m 13,7 C 27,8 C 0,0 km/h (0 Bft) 0,00 %
03.08.2015 15:15 27,9 C 41 % 1019,1 hPa 0,0 l/m 0,0 km/h (0 Bft) NO 43 5 min 0,000 mm 4,0 UV-I 945 W/m 13,4 C 27,9 C 0,0 km/h (0 Bft) 0,00 %
03.08.2015 15:20 27,9 C 36 % 1019,0 hPa 0,0 l/m 0,0 km/h (0 Bft) NO 46 5 min 0,000 mm 4,0 UV-I 937 W/m 11,4 C 27,9 C 0,0 km/h (0 Bft) 0,00 %
03.08.2015 15:25 27,9 C 41 % 1019,0 hPa 0,0 l/m 0,0 km/h (0 Bft) O-NO 72 5 min 0,000 mm 4,0 UV-I 940 W/m 13,4 C 27,9 C 0,0 km/h (0 Bft) 0,00 %
03.08.2015 15:30 28,1 C 37 % 1018,9 hPa 0,0 l/m 0,4 km/h (0 Bft) O 79 5 min 0,000 mm 3,0 UV-I 936 W/m 12,0 C 28,1 C 4,0 km/h (1 Bft) 0,00 %
03.08.2015 15:35 28,1 C 38 % 1018,8 hPa 0,0 l/m 3,2 km/h (1 Bft) NW 325 5 min 0,000 mm 3,0 UV-I 930 W/m 12,4 C 28,1 C 4,0 km/h (1 Bft) 0,00 %
03.08.2015 15:40 28,1 C 35 % 1019,0 hPa 0,0 l/m 0,7 km/h (0 Bft) N-NW 342 5 min 0,000 mm 3,0 UV-I 917 W/m 11,2 C 28,1 C 4,0 km/h (1 Bft) 0,00 %
03.08.2015 15:45 28,1 C 37 % 1018,9 hPa 0,0 l/m 0,0 km/h (0 Bft) NO 36 5 min 0,000 mm 3,0 UV-I 914 W/m 12,0 C 28,1 C 0,0 km/h (0 Bft) 0,00 %
03.08.2015 15:50 28,0 C 39 % 1018,8 hPa 0,0 l/m 0,0 km/h (0 Bft) NO 48 5 min 0,000 mm 3,0 UV-I 912 W/m 12,7 C 28,0 C 0,0 km/h (0 Bft) 0,00 %
03.08.2015 15:55 28,1 C 36 % 1018,9 hPa 0,0 l/m 0,0 km/h (0 Bft) N 0 5 min 0,000 mm 3,0 UV-I 913 W/m 11,6 C 28,1 C 0,0 km/h (0 Bft) 0,00 %
03.08.2015 16:00 28,2 C 37 % 1018,9 hPa 0,0 l/m 0,0 km/h (0 Bft) NO 36 5 min 0,000 mm 3,0 UV-I 905 W/m 12,1 C 28,2 C 0,0 km/h (0 Bft) 0,00 %
03.08.2015 16:05 28,4 C 37 % 1018,9 hPa 0,0 l/m 0,0 km/h (0 Bft) O-NO 63 5 min 0,000 mm 3,0 UV-I 905 W/m 12,3 C 28,4 C 0,0 km/h (0 Bft) 0,00 %
03.08.2015 16:10 28,4 C 39 % 1018,8 hPa 0,0 l/m 0,0 km/h (0 Bft) N-NW 340 5 min 0,000 mm 3,0 UV-I 905 W/m 13,1 C 28,4 C 0,0 km/h (0 Bft) 0,00 %
03.08.2015 16:15 28,3 C 37 % 1018,6 hPa 0,0 l/m 0,0 km/h (0 Bft) N-NO 22 5 min 0,000 mm 3,0 UV-I 899 W/m 12,2 C 28,3 C 0,0 km/h (0 Bft) 0,00 %
03.08.2015 16:20 28,2 C 39 % 1018,5 hPa 0,0 l/m 1,4 km/h (1 Bft) N-NW 343 5 min 0,000 mm 3,0 UV-I 899 W/m 12,9 C 28,2 C 4,0 km/h (1 Bft) 0,00 %
03.08.2015 16:25 28,1 C 41 % 1018,5 hPa 0,0 l/m 0,4 km/h (0 Bft) NW 314 5 min 0,000 mm 2,0 UV-I 898 W/m 13,6 C 28,1 C 4,0 km/h (1 Bft) 0,00 %
03.08.2015 16:30 27,9 C 42 % 1018,4 hPa 0,0 l/m 0,4 km/h (0 Bft) N 349 5 min 0,000 mm 2,0 UV-I 898 W/m 13,8 C 27,9 C 4,0 km/h (1 Bft) 0,00 %
03.08.2015 16:35 27,9 C 38 % 1018,5 hPa 0,0 l/m 1,8 km/h (1 Bft) N-NW 331 5 min 0,000 mm 1,0 UV-I 892 W/m 12,2 C 27,9 C 4,0 km/h (1 Bft) 0,00 %
03.08.2015 16:40 28,1 C 39 % 1018,4 hPa 0,0 l/m 0,0 km/h (0 Bft) N 352 5 min 0,000 mm 1,0 UV-I 883 W/m 12,8 C 28,1 C 0,0 km/h (0 Bft) 0,00 %
03.08.2015 16:45 28,4 C 39 % 1018,3 hPa 0,0 l/m 0,0 km/h (0 Bft) N-NO 13 5 min 0,000 mm 1,0 UV-I 886 W/m 13,1 C 28,4 C 0,0 km/h (0 Bft) 0,00 %
03.08.2015 16:50 28,6 C 38 % 1018,2 hPa 0,0 l/m 0,7 km/h (0 Bft) NW 321 5 min 0,000 mm 1,0 UV-I 882 W/m 12,9 C 28,6 C 4,0 km/h (1 Bft) 0,00 %
03.08.2015 16:55 28,6 C 38 % 1018,4 hPa 0,0 l/m 0,0 km/h (0 Bft) NO 41 5 min 0,000 mm 1,0 UV-I 879 W/m 12,9 C 28,6 C 0,0 km/h (0 Bft) 0,00 %
03.08.2015 17:00 28,4 C 41 % 1018,1 hPa 0,0 l/m 0,0 km/h (0 Bft) N-NO 28 5 min 0,000 mm 1,0 UV-I 875 W/m 13,9 C 28,4 C 0,0 km/h (0 Bft) 0,00 %
03.08.2015 17:05 28,1 C 40 % 1018,2 hPa 0,0 l/m 0,0 km/h (0 Bft) N-NO 24 5 min 0,000 mm 1,0 UV-I 868 W/m 13,2 C 28,1 C 0,0 km/h (0 Bft) 0,00 %
03.08.2015 17:10 28,1 C 36 % 1018,0 hPa 0,0 l/m 0,0 km/h (0 Bft) NO 38 5 min 0,000 mm 1,0 UV-I 863 W/m 11,6 C 28,1 C 0,0 km/h (0 Bft) 0,00 %
03.08.2015 17:15 28,2 C 35 % 1018,0 hPa 0,0 l/m 0,0 km/h (0 Bft) NO 55 5 min 0,000 mm 1,0 UV-I 855 W/m 11,3 C 28,2 C 0,0 km/h (0 Bft) 0,00 %
03.08.2015 17:20 28,5 C 37 % 1018,1 hPa 0,0 l/m 0,0 km/h (0 Bft) N-NO 18 5 min 0,000 mm 1,0 UV-I 854 W/m 12,4 C 28,5 C 0,0 km/h (0 Bft) 0,00 %
03.08.2015 17:25 28,8 C 40 % 1018,1 hPa 0,0 l/m 0,0 km/h (0 Bft) N-NW 342 5 min 0,000 mm 1,0 UV-I 845 W/m 13,8 C 28,8 C 0,0 km/h (0 Bft) 0,00 %
03.08.2015 17:30 28,9 C 35 % 1018,1 hPa 0,0 l/m 0,0 km/h (0 Bft) N-NO 20 5 min 0,000 mm 1,0 UV-I 840 W/m 11,9 C 28,9 C 0,0 km/h (0 Bft) 0,00 %
03.08.2015 17:35 29,0 C 35 % 1017,8 hPa 0,0 l/m 1,8 km/h (1 Bft) N-NW 334 5 min 0,000 mm 1,0 UV-I 832 W/m 12,0 C 29,0 C 7,9 km/h (2 Bft) 0,00 %
03.08.2015 17:40 28,9 C 41 % 1017,8 hPa 0,0 l/m 0,0 km/h (0 Bft) N 350 5 min 0,000 mm 1,0 UV-I 818 W/m 14,3 C 28,9 C 0,0 km/h (0 Bft) 0,00 %
03.08.2015 17:45 28,8 C 35 % 1017,8 hPa 0,0 l/m 1,4 km/h (1 Bft) NW 315 5 min 0,000 mm 1,0 UV-I 815 W/m 11,8 C 28,8 C 4,0 km/h (1 Bft) 0,00 %
03.08.2015 17:50 28,8 C 35 % 1017,6 hPa 0,0 l/m 0,0 km/h (0 Bft) NO 42 5 min 0,000 mm 1,0 UV-I 808 W/m 11,8 C 28,8 C 0,0 km/h (0 Bft) 0,00 %
03.08.2015 17:55 28,7 C 37 % 1017,6 hPa 0,0 l/m 0,0 km/h (0 Bft) NO 40 5 min 0,000 mm 1,0 UV-I 802 W/m 12,5 C 28,7 C 0,0 km/h (0 Bft) 0,00 %
03.08.2015 18:00 28,6 C 40 % 1017,6 hPa 0,0 l/m 0,0 km/h (0 Bft) NW 326 5 min 0,000 mm 1,0 UV-I 785 W/m 13,7 C 28,6 C 0,0 km/h (0 Bft) 0,00 %
03.08.2015 18:05 28,6 C 39 % 1017,4 hPa 0,0 l/m 0,0 km/h (0 Bft) O-NO 62 5 min 0,000 mm 1,0 UV-I 772 W/m 13,3 C 28,6 C 0,0 km/h (0 Bft) 0,00 %
03.08.2015 18:10 28,6 C 41 % 1017,6 hPa 0,0 l/m 0,0 km/h (0 Bft) N-NO 13 5 min 0,000 mm 1,0 UV-I 760 W/m 14,0 C 28,6 C 0,0 km/h (0 Bft) 0,00 %
03.08.2015 18:15 28,6 C 41 % 1017,5 hPa 0,0 l/m 0,0 km/h (0 Bft) N-NO 21 5 min 0,000 mm 1,0 UV-I 744 W/m 14,0 C 28,6 C 0,0 km/h (0 Bft) 0,00 %
03.08.2015 18:20 28,5 C 44 % 1017,4 hPa 0,0 l/m 0,0 km/h (0 Bft) N 352 5 min 0,000 mm 1,0 UV-I 728 W/m 15,0 C 28,5 C 0,0 km/h (0 Bft) 0,00 %
03.08.2015 18:25 28,5 C 36 % 1017,5 hPa 0,0 l/m 0,0 km/h (0 Bft) O 93 5 min 0,000 mm 1,0 UV-I 720 W/m 12,0 C 28,5 C 0,0 km/h (0 Bft) 0,00 %
03.08.2015 18:30 28,7 C 39 % 1017,5 hPa 0,0 l/m 0,0 km/h (0 Bft) N 10 5 min 0,000 mm 1,0 UV-I 709 W/m 13,4 C 28,7 C 0,0 km/h (0 Bft) 0,00 %
03.08.2015 18:35 28,7 C 38 % 1017,4 hPa 0,0 l/m 0,0 km/h (0 Bft) N-NW 329 5 min 0,000 mm 1,0 UV-I 684 W/m 13,0 C 28,7 C 0,0 km/h (0 Bft) 0,00 %
03.08.2015 18:40 28,8 C 34 % 1017,4 hPa 0,0 l/m 0,0 km/h (0 Bft) O 85 5 min 0,000 mm 1,0 UV-I 666 W/m 11,4 C 28,8 C 0,0 km/h (0 Bft) 0,00 %
03.08.2015 18:45 28,9 C 37 % 1017,4 hPa 0,0 l/m 0,0 km/h (0 Bft) O 87 5 min 0,000 mm 1,0 UV-I 652 W/m 12,7 C 28,9 C 0,0 km/h (0 Bft) 0,00 %
03.08.2015 18:50 28,8 C 37 % 1017,4 hPa 0,0 l/m 0,0 km/h (0 Bft) O-NO 64 5 min 0,000 mm 1,0 UV-I 635 W/m 12,6 C 28,8 C 0,0 km/h (0 Bft) 0,00 %
03.08.2015 18:55 28,5 C 40 % 1017,4 hPa 0,0 l/m 0,0 km/h (0 Bft) NO 41 5 min 0,000 mm 1,0 UV-I 617 W/m 13,6 C 28,5 C 0,0 km/h (0 Bft) 0,00 %
03.08.2015 19:00 28,2 C 39 % 1017,2 hPa 0,0 l/m 0,0 km/h (0 Bft) NO 47 5 min 0,000 mm 1,0 UV-I 598 W/m 12,9 C 28,2 C 0,0 km/h (0 Bft) 0,00 %
03.08.2015 19:05 28,1 C 39 % 1017,1 hPa 0,0 l/m 0,0 km/h (0 Bft) O-NO 57 5 min 0,000 mm 1,0 UV-I 578 W/m 12,8 C 28,1 C 0,0 km/h (0 Bft) 0,00 %
03.08.2015 19:10 28,1 C 41 % 1017,2 hPa 0,0 l/m 0,0 km/h (0 Bft) NO 48 5 min 0,000 mm 1,0 UV-I 558 W/m 13,6 C 28,1 C 0,0 km/h (0 Bft) 0,00 %
03.08.2015 19:15 28,1 C 40 % 1017,2 hPa 0,0 l/m 0,0 km/h (0 Bft) NO 42 5 min 0,000 mm 1,0 UV-I 533 W/m 13,2 C 28,1 C 0,0 km/h (0 Bft) 0,00 %
03.08.2015 19:20 28,2 C 40 % 1017,3 hPa 0,0 l/m 0,0 km/h (0 Bft) O-NO 75 5 min 0,000 mm 1,0 UV-I 505 W/m 13,3 C 28,2 C 0,0 km/h (0 Bft) 0,00 %
03.08.2015 19:25 28,1 C 41 % 1017,2 hPa 0,0 l/m 0,0 km/h (0 Bft) NO 48 5 min 0,000 mm 0,0 UV-I 476 W/m 13,6 C 28,1 C 0,0 km/h (0 Bft) 0,00 %
03.08.2015 19:30 27,9 C 43 % 1017,4 hPa 0,0 l/m 0,0 km/h (0 Bft) O-SO 110 5 min 0,000 mm 0,0 UV-I 445 W/m 14,1 C 27,9 C 0,0 km/h (0 Bft) 0,00 %
03.08.2015 19:35 27,7 C 43 % 1017,2 hPa 0,0 l/m 0,0 km/h (0 Bft) NO 53 5 min 0,000 mm 0,0 UV-I 409 W/m 14,0 C 27,7 C 0,0 km/h (0 Bft) 0,00 %
03.08.2015 19:40 27,3 C 43 % 1017,3 hPa 0,0 l/m 0,0 km/h (0 Bft) O-NO 74 5 min 0,000 mm 0,0 UV-I 375 W/m 13,6 C 27,3 C 0,0 km/h (0 Bft) 0,00 %
03.08.2015 19:45 27,1 C 43 % 1017,2 hPa 0,0 l/m 0,0 km/h (0 Bft) O-NO 59 5 min 0,000 mm 0,0 UV-I 339 W/m 13,4 C 27,1 C 0,0 km/h (0 Bft) 0,00 %
03.08.2015 19:50 27,0 C 43 % 1017,3 hPa 0,0 l/m 0,0 km/h (0 Bft) O-NO 61 5 min 0,000 mm 0,0 UV-I 302 W/m 13,3 C 27,0 C 0,0 km/h (0 Bft) 0,00 %
03.08.2015 19:55 26,8 C 43 % 1017,2 hPa 0,0 l/m 0,0 km/h (0 Bft) O-NO 57 5 min 0,000 mm 0,0 UV-I 261 W/m 13,2 C 26,8 C 0,0 km/h (0 Bft) 0,00 %
03.08.2015 20:00 26,6 C 43 % 1017,3 hPa 0,0 l/m 0,0 km/h (0 Bft) O-NO 71 5 min 0,000 mm 0,0 UV-I 73 W/m 13,0 C 26,6 C 0,0 km/h (0 Bft) 0,00 %
03.08.2015 20:05 26,2 C 45 % 1017,1 hPa 0,0 l/m 0,0 km/h (0 Bft) O-NO 69 5 min 0,000 mm 0,0 UV-I 49 W/m 13,3 C 26,2 C 0,0 km/h (0 Bft) 0,00 %
03.08.2015 20:10 25,6 C 48 % 1017,3 hPa 0,0 l/m 0,0 km/h (0 Bft) NO 53 5 min 0,000 mm 0,0 UV-I 43 W/m 13,8 C 25,6 C 0,0 km/h (0 Bft) 0,00 %
03.08.2015 20:15 25,0 C 50 % 1017,2 hPa 0,0 l/m 0,0 km/h (0 Bft) O-NO 68 5 min 0,000 mm 0,0 UV-I 31 W/m 13,8 C 25,0 C 0,0 km/h (0 Bft) 0,00 %
03.08.2015 20:20 24,5 C 51 % 1017,1 hPa 0,0 l/m 0,0 km/h (0 Bft) O-NO 68 5 min 0,000 mm 0,0 UV-I 25 W/m 13,7 C 24,5 C 0,0 km/h (0 Bft) 0,00 %
03.08.2015 20:25 24,1 C 55 % 1017,2 hPa 0,0 l/m 0,0 km/h (0 Bft) O-NO 68 5 min 0,000 mm 0,0 UV-I 18 W/m 14,5 C 24,1 C 0,0 km/h (0 Bft) 0,00 %
03.08.2015 20:30 23,7 C 56 % 1017,2 hPa 0,0 l/m 0,0 km/h (0 Bft) O-NO 68 0 min 0,000 mm 0,0 UV-I 9 W/m 14,4 C 23,7 C 0,0 km/h (0 Bft) 0,00 %
03.08.2015 20:35 23,2 C 58 % 1017,1 hPa 0,0 l/m 0,0 km/h (0 Bft) O-NO 68 0 min 0,000 mm 0,0 UV-I 4 W/m 14,5 C 23,2 C 0,0 km/h (0 Bft) 0,00 %
03.08.2015 20:40 22,9 C 60 % 1017,3 hPa 0,0 l/m 0,0 km/h (0 Bft) O-NO 68 0 min 0,000 mm 0,0 UV-I 0 W/m 14,7 C 22,9 C 0,0 km/h (0 Bft) 0,00 %
03.08.2015 20:45 22,7 C 59 % 1017,2 hPa 0,0 l/m 0,0 km/h (0 Bft) O-NO 68 0 min 0,000 mm 0,0 UV-I 0 W/m 14,3 C 22,7 C 0,0 km/h (0 Bft) 0,00 %
03.08.2015 20:50 22,5 C 60 % 1017,3 hPa 0,0 l/m 0,0 km/h (0 Bft) O-NO 68 0 min 0,000 mm 0,0 UV-I 0 W/m 14,3 C 22,5 C 0,0 km/h (0 Bft) 0,00 %
03.08.2015 20:55 22,1 C 62 % 1017,3 hPa 0,0 l/m 0,0 km/h (0 Bft) O-NO 68 0 min 0,000 mm 0,0 UV-I 0 W/m 14,5 C 22,1 C 0,0 km/h (0 Bft) 0,00 %
03.08.2015 21:00 21,9 C 62 % 1017,4 hPa 0,0 l/m 0,0 km/h (0 Bft) O-NO 68 0 min 0,000 mm 0,0 UV-I 0 W/m 14,3 C 21,9 C 0,0 km/h (0 Bft) 0,00 %
03.08.2015 21:05 21,6 C 65 % 1017,4 hPa 0,0 l/m 0,0 km/h (0 Bft) O-NO 68 0 min 0,000 mm 0,0 UV-I 0 W/m 14,7 C 21,6 C 0,0 km/h (0 Bft) 0,00 %
03.08.2015 21:10 21,2 C 67 % 1017,2 hPa 0,0 l/m 0,0 km/h (0 Bft) NO 44 0 min 0,000 mm 0,0 UV-I 0 W/m 14,8 C 21,2 C 0,0 km/h (0 Bft) 0,00 %
03.08.2015 21:17 20,4 C 69 % 1017,5 hPa 0,0 l/m 0,0 km/h (0 Bft) NO 43 0 min 0,000 mm 0,0 UV-I 0 W/m 14,5 C 20,4 C 0,0 km/h (0 Bft) 0,00 %
03.08.2015 21:22 20,4 C 71 % 1017,5 hPa 0,0 l/m 0,0 km/h (0 Bft) NO 43 0 min 0,000 mm 0,0 UV-I 0 W/m 15,0 C 20,4 C 0,0 km/h (0 Bft) 0,00 %
03.08.2015 21:27 20,2 C 73 % 1017,5 hPa 0,0 l/m 0,0 km/h (0 Bft) NO 43 0 min 0,000 mm 0,0 UV-I 0 W/m 15,2 C 20,2 C 0,0 km/h (0 Bft) 0,00 %
03.08.2015 21:32 20,0 C 73 % 1017,6 hPa 0,0 l/m 0,0 km/h (0 Bft) NO 44 0 min 0,000 mm 0,0 UV-I 0 W/m 15,0 C 20,0 C 0,0 km/h (0 Bft) 0,00 %
03.08.2015 21:37 19,9 C 73 % 1017,5 hPa 0,0 l/m 0,0 km/h (0 Bft) NO 44 0 min 0,000 mm 0,0 UV-I 0 W/m 14,9 C 19,9 C 0,0 km/h (0 Bft) 0,00 %
03.08.2015 21:42 19,8 C 73 % 1017,4 hPa 0,0 l/m 0,0 km/h (0 Bft) NO 44 0 min 0,000 mm 0,0 UV-I 0 W/m 14,8 C 19,8 C 0,0 km/h (0 Bft) 0,00 %
03.08.2015 21:47 19,6 C 73 % 1017,4 hPa 0,0 l/m 0,0 km/h (0 Bft) NO 44 0 min 0,000 mm 0,0 UV-I 0 W/m 14,6 C 19,6 C 0,0 km/h (0 Bft) 0,00 %
03.08.2015 21:52 19,5 C 74 % 1017,6 hPa 0,0 l/m 0,0 km/h (0 Bft) NO 44 0 min 0,000 mm 0,0 UV-I 0 W/m 14,7 C 19,5 C 0,0 km/h (0 Bft) 0,00 %
03.08.2015 21:57 19,4 C 74 % 1017,5 hPa 0,0 l/m 0,0 km/h (0 Bft) NO 44 0 min 0,000 mm 0,0 UV-I 0 W/m 14,6 C 19,4 C 0,0 km/h (0 Bft) 0,00 %
03.08.2015 22:02 19,2 C 76 % 1017,5 hPa 0,0 l/m 0,0 km/h (0 Bft) NO 49 0 min 0,000 mm 0,0 UV-I 0 W/m 14,9 C 19,2 C 0,0 km/h (0 Bft) 0,00 %
03.08.2015 22:07 19,1 C 75 % 1017,5 hPa 0,0 l/m 0,0 km/h (0 Bft) O-NO 57 0 min 0,000 mm 0,0 UV-I 0 W/m 14,6 C 19,1 C 0,0 km/h (0 Bft) 0,00 %
03.08.2015 22:12 18,9 C 76 % 1017,4 hPa 0,0 l/m 0,0 km/h (0 Bft) O-NO 57 0 min 0,000 mm 0,0 UV-I 0 W/m 14,6 C 18,9 C 0,0 km/h (0 Bft) 0,00 %
03.08.2015 22:17 18,8 C 74 % 1017,4 hPa 0,0 l/m 0,0 km/h (0 Bft) O-NO 57 0 min 0,000 mm 0,0 UV-I 0 W/m 14,1 C 18,8 C 0,0 km/h (0 Bft) 0,00 %
03.08.2015 22:22 18,7 C 73 % 1017,2 hPa 0,0 l/m 0,0 km/h (0 Bft) O-NO 57 0 min 0,000 mm 0,0 UV-I 0 W/m 13,8 C 18,7 C 0,0 km/h (0 Bft) 0,00 %
03.08.2015 22:27 18,7 C 74 % 1017,4 hPa 0,0 l/m 0,0 km/h (0 Bft) NO 49 0 min 0,000 mm 0,0 UV-I 0 W/m 14,0 C 18,7 C 0,0 km/h (0 Bft) 0,00 %
03.08.2015 22:32 18,7 C 75 % 1017,3 hPa 0,0 l/m 0,0 km/h (0 Bft) O-NO 58 0 min 0,000 mm 0,0 UV-I 0 W/m 14,2 C 18,7 C 0,0 km/h (0 Bft) 0,00 %
03.08.2015 22:37 18,7 C 76 % 1017,4 hPa 0,0 l/m 0,0 km/h (0 Bft) O-NO 58 0 min 0,000 mm 0,0 UV-I 0 W/m 14,4 C 18,7 C 0,0 km/h (0 Bft) 0,00 %
03.08.2015 22:42 18,7 C 75 % 1017,4 hPa 0,0 l/m 0,0 km/h (0 Bft) NO 54 0 min 0,000 mm 0,0 UV-I 0 W/m 14,2 C 18,7 C 0,0 km/h (0 Bft) 0,00 %
03.08.2015 22:47 18,6 C 76 % 1017,2 hPa 0,0 l/m 0,0 km/h (0 Bft) NO 54 0 min 0,000 mm 0,0 UV-I 0 W/m 14,3 C 18,6 C 0,0 km/h (0 Bft) 0,00 %
03.08.2015 22:52 18,4 C 77 % 1017,3 hPa 0,0 l/m 0,0 km/h (0 Bft) O-NO 61 0 min 0,000 mm 0,0 UV-I 0 W/m 14,3 C 18,4 C 0,0 km/h (0 Bft) 0,00 %
03.08.2015 22:57 18,3 C 79 % 1017,3 hPa 0,0 l/m 0,0 km/h (0 Bft) NO 52 0 min 0,000 mm 0,0 UV-I 0 W/m 14,6 C 18,3 C 0,0 km/h (0 Bft) 0,00 %
03.08.2015 23:02 18,1 C 80 % 1017,4 hPa 0,0 l/m 0,0 km/h (0 Bft) N-NO 31 0 min 0,000 mm 0,0 UV-I 0 W/m 14,6 C 18,1 C 0,0 km/h (0 Bft) 0,00 %
03.08.2015 23:07 17,9 C 82 % 1017,2 hPa 0,0 l/m 0,0 km/h (0 Bft) NO 38 0 min 0,000 mm 0,0 UV-I 0 W/m 14,8 C 17,9 C 0,0 km/h (0 Bft) 0,00 %
03.08.2015 23:12 17,8 C 82 % 1017,1 hPa 0,0 l/m 0,0 km/h (0 Bft) NO 39 0 min 0,000 mm 0,0 UV-I 0 W/m 14,7 C 17,8 C 0,0 km/h (0 Bft) 0,00 %
03.08.2015 23:17 17,7 C 82 % 1017,5 hPa 0,0 l/m 0,0 km/h (0 Bft) NO 39 0 min 0,000 mm 0,0 UV-I 0 W/m 14,6 C 17,7 C 0,0 km/h (0 Bft) 0,00 %
03.08.2015 23:22 17,6 C 83 % 1017,4 hPa 0,0 l/m 0,0 km/h (0 Bft) NO 44 0 min 0,000 mm 0,0 UV-I 0 W/m 14,7 C 17,6 C 0,0 km/h (0 Bft) 0,00 %
03.08.2015 23:27 17,5 C 84 % 1017,4 hPa 0,0 l/m 0,0 km/h (0 Bft) NO 44 0 min 0,000 mm 0,0 UV-I 0 W/m 14,8 C 17,5 C 0,0 km/h (0 Bft) 0,00 %
03.08.2015 23:32 17,3 C 84 % 1017,4 hPa 0,0 l/m 0,0 km/h (0 Bft) NO 46 0 min 0,000 mm 0,0 UV-I 0 W/m 14,6 C 17,3 C 0,0 km/h (0 Bft) 0,00 %
03.08.2015 23:37 17,2 C 85 % 1017,6 hPa 0,0 l/m 0,0 km/h (0 Bft) NO 46 0 min 0,000 mm 0,0 UV-I 0 W/m 14,7 C 17,2 C 0,0 km/h (0 Bft) 0,00 %
03.08.2015 23:42 17,1 C 85 % 1017,6 hPa 0,0 l/m 0,0 km/h (0 Bft) O-NO 72 0 min 0,000 mm 0,0 UV-I 0 W/m 14,6 C 17,1 C 0,0 km/h (0 Bft) 0,00 %
03.08.2015 23:47 17,0 C 85 % 1017,4 hPa 0,0 l/m 0,0 km/h (0 Bft) O-NO 72 0 min 0,000 mm 0,0 UV-I 0 W/m 14,5 C 17,0 C 0,0 km/h (0 Bft) 0,00 %
03.08.2015 23:52 17,0 C 85 % 1017,5 hPa 0,0 l/m 0,0 km/h (0 Bft) O-NO 72 0 min 0,000 mm 0,0 UV-I 0 W/m 14,5 C 17,0 C 0,0 km/h (0 Bft) 0,00 %
03.08.2015 23:57 16,9 C 86 % 1017,5 hPa 0,0 l/m 0,0 km/h (0 Bft) O-NO 72 0 min 0,000 mm 0,0 UV-I 0 W/m 14,5 C 16,9 C 0,0 km/h (0 Bft) 0,00 %
_ Min-Zeit 04:39 18:40 19:05 - 00:04 - - - - - - 04:59 04:39 00:04 00:04
Minimum _ 10,8 C 34 % 1017,1 hPa - 0,0 km/h (0 Bft) - - - - - - 10,4 C 10,8 C 0,0 km/h (0 Bft) 0,00 %
_ Max-Zeit 17:35 00:54 00:04 02:04 12:20 - - 11:10 00:04 12:00 15:15 12:05 17:35 12:20 00:04
Maximum _ 29,0 C 99 % 1020,9 hPa 0,3 l/m 4,3 km/h
O (1 Bft)
- - 6 min 0,000 mm 5,0 UV-I 945 W/m 15,6 C 29,0 C 7,9 km/h
O (2 Bft)
0,00 %
Durchschnitt _ 19,5 C 72 % 1019,1 hPa #0,3 l/m 0,1 km/h (0 Bft) NW - #10:41 h #0,000 mm 2,6 UV-I 561 W/m 13,3 C 19,5 C 0,5 km/h (0 Bft) 0,00 %